contact:dominique.lefevre@mio.osupytheas.fr, maurice.libes@osupytheas.fr, didier.mallarino@osupytheas.fr
Project:EMSO http://www.emso-fr.org/EMSO-France
Depth: 2436.0 m
Title:EMSO Ligure Ouest : Data MII capteur AQUADOPP
Date,Latitude,Longitude,X_East,Y_North,Z_Up,Amplitude_X,Amplitude_Y,Amplitude_Z,Batterie,SoundSpeed,Heading,Pitch,Roll,Pressure,TIS,Speed,Direction
, degrees North, degrees East, m.s-1, m.s-1,m.s-1, 1, 1, 1, Volt, m.s-1, degree, degree, degree, dbar, degree_C, m.s-1, degree
2023-03-31T00:04:03,42.805,6.029,0.001,0.032,-0.008,100.0,108.0,99.0,13.4,1505.2,342.8,-0.8,1.8,2471.364,13.28,0.032,1.8
2023-03-31T00:07:03,42.805,6.029,-0.025,0.059,0.01,100.0,108.0,98.0,13.3,1505.2,332.4,-0.7,1.9,2471.362,13.28,0.064,337.0
2023-03-31T00:10:03,42.805,6.029,-0.015,0.041,0.007,100.0,104.0,99.0,13.4,1505.2,326.0,-0.8,1.8,2471.375,13.29,0.043,339.9
2023-03-31T00:13:03,42.805,6.029,-0.026,0.061,0.0,101.0,109.0,99.0,13.4,1505.2,339.5,-0.7,1.8,2471.324,13.29,0.066,336.9
2023-03-31T00:16:03,42.805,6.029,0.01,0.045,0.006,101.0,109.0,99.0,13.3,1505.2,333.8,-0.8,1.8,2471.317,13.29,0.046,12.5
2023-03-31T00:19:03,42.805,6.029,-0.01,0.061,0.034,100.0,108.0,99.0,13.4,1505.2,337.5,-0.8,1.8,2471.337,13.29,0.061,350.7
2023-03-31T00:22:03,42.805,6.029,0.011,0.045,0.021,101.0,108.0,99.0,13.4,1505.2,325.7,-0.7,1.8,2471.367,13.29,0.046,13.7
2023-03-31T00:25:03,42.805,6.029,-0.032,0.051,0.013,99.0,110.0,99.0,13.4,1505.2,340.2,-0.8,1.8,2471.352,13.29,0.06,327.9
2023-03-31T00:28:03,42.805,6.029,-0.008,0.031,-0.048,100.0,108.0,98.0,13.4,1505.2,322.3,-0.8,1.8,2471.382,13.29,0.032,345.5
2023-03-31T00:31:03,42.805,6.029,-0.01,0.049,0.011,100.0,106.0,99.0,13.4,1505.2,329.7,-0.8,1.8,2471.345,13.29,0.05,348.5
2023-03-31T00:34:03,42.805,6.029,0.009,0.042,0.026,101.0,106.0,100.0,13.4,1505.2,325.0,-0.7,1.8,2471.303,13.29,0.042,12.1
2023-03-31T00:37:03,42.805,6.029,0.007,0.048,0.015,102.0,106.0,99.0,13.4,1505.2,324.8,-0.8,1.8,2471.333,13.29,0.048,8.3
2023-03-31T00:40:03,42.805,6.029,0.05,0.03,0.038,99.0,108.0,99.0,13.4,1505.2,342.2,-0.8,1.8,2471.329,13.29,0.058,59.0
2023-03-31T00:43:03,42.805,6.029,0.002,0.069,0.048,100.0,109.0,100.0,13.4,1505.2,333.0,-0.8,1.8,2471.326,13.29,0.069,1.7
2023-03-31T00:46:03,42.805,6.029,-0.007,0.027,-0.036,99.0,110.0,99.0,13.3,1505.2,326.3,-0.8,1.8,2471.331,13.29,0.027,345.5
2023-03-31T00:49:03,42.805,6.029,-0.017,0.034,-0.03,101.0,109.0,98.0,13.4,1505.2,323.1,-0.8,1.8,2471.339,13.29,0.038,333.4
2023-03-31T00:52:03,42.805,6.029,0.0,0.042,0.001,101.0,110.0,99.0,13.4,1505.2,325.1,-0.8,1.8,2471.361,13.29,0.042,0.0
2023-03-31T00:55:03,42.805,6.029,-0.001,0.034,0.004,100.0,105.0,100.0,13.4,1505.2,335.2,-0.8,1.8,2471.324,13.29,0.034,358.3
2023-03-31T00:58:03,42.805,6.029,-0.016,0.037,-0.019,101.0,106.0,99.0,13.4,1505.2,337.4,-0.7,1.8,2471.332,13.29,0.04,336.6
2023-03-31T01:04:03,42.805,6.029,0.021,0.011,-0.057,102.0,110.0,102.0,13.3,1505.2,334.3,-0.8,1.8,2471.353,13.28,0.023,62.4
2023-03-31T01:07:03,42.805,6.029,-0.02,0.054,0.023,101.0,109.0,100.0,13.4,1505.2,319.6,-0.7,1.8,2471.387,13.28,0.057,339.7
2023-03-31T01:10:03,42.805,6.029,-0.018,0.057,0.005,100.0,108.0,100.0,13.4,1505.2,324.0,-0.8,1.8,2471.33,13.28,0.059,342.5
2023-03-31T01:13:03,42.805,6.029,-0.009,0.049,0.013,101.0,108.0,99.0,13.3,1505.2,324.3,-0.8,1.9,2471.338,13.29,0.049,349.6
2023-03-31T01:16:03,42.805,6.029,-0.007,0.029,-0.021,100.0,108.0,100.0,13.4,1505.2,315.6,-0.8,1.8,2471.381,13.29,0.029,346.4
2023-03-31T01:19:03,42.805,6.029,0.013,0.048,0.016,101.0,107.0,101.0,13.3,1505.2,335.0,-0.7,1.8,2471.369,13.29,0.049,15.2
2023-03-31T01:22:03,42.805,6.029,-0.008,0.022,-0.015,99.0,108.0,99.0,13.4,1505.2,321.7,-0.8,1.8,2471.372,13.29,0.023,340.0
2023-03-31T01:25:03,42.805,6.029,0.014,0.022,-0.029,101.0,107.0,100.0,13.4,1505.2,325.8,-0.7,1.8,2471.318,13.29,0.026,32.5
2023-03-31T01:28:03,42.805,6.029,-0.007,0.072,0.025,98.0,109.0,100.0,13.4,1505.2,335.9,-0.8,1.8,2471.376,13.29,0.072,354.5
2023-03-31T01:31:03,42.805,6.029,-0.027,0.051,0.012,101.0,107.0,100.0,13.4,1505.2,327.5,-0.8,1.8,2471.369,13.29,0.057,332.1
2023-03-31T01:34:03,42.805,6.029,0.012,0.049,0.029,101.0,106.0,100.0,13.4,1505.2,341.9,-0.8,1.8,2471.389,13.29,0.05,13.8
2023-03-31T01:37:03,42.805,6.029,-0.021,0.075,0.015,101.0,108.0,99.0,13.4,1505.2,330.6,-0.7,1.8,2471.343,13.29,0.077,344.4
2023-03-31T01:40:03,42.805,6.029,0.005,0.091,0.032,100.0,109.0,99.0,13.4,1505.2,344.2,-0.8,1.8,2471.375,13.29,0.091,3.1
2023-03-31T01:43:03,42.805,6.029,-0.007,0.065,0.036,100.0,111.0,100.0,13.4,1505.2,336.2,-0.7,1.9,2471.35,13.29,0.065,353.9
2023-03-31T01:46:03,42.805,6.029,-0.016,0.035,0.003,101.0,107.0,100.0,13.4,1505.2,333.0,-0.8,1.9,2471.343,13.29,0.038,335.4
2023-03-31T01:49:03,42.805,6.029,-0.02,0.056,0.037,100.0,108.0,99.0,13.4,1505.2,323.5,-0.8,1.8,2471.347,13.29,0.059,340.4
2023-03-31T01:52:03,42.805,6.029,0.001,0.04,-0.009,100.0,109.0,99.0,13.4,1505.2,327.9,-0.7,1.8,2471.34,13.29,0.04,1.4
2023-03-31T01:55:03,42.805,6.029,-0.005,0.039,0.006,102.0,105.0,100.0,13.3,1505.2,326.0,-0.8,1.8,2471.337,13.29,0.039,352.7
2023-03-31T01:58:03,42.805,6.029,-0.015,0.035,-0.032,100.0,107.0,100.0,13.4,1505.2,340.6,-0.7,1.8,2471.352,13.29,0.038,336.8
2023-03-31T02:04:03,42.805,6.029,0.023,0.048,0.067,102.0,107.0,100.0,13.4,1505.2,332.6,-0.8,1.8,2471.413,13.28,0.053,25.6
2023-03-31T02:07:03,42.805,6.029,-0.019,0.035,0.001,100.0,107.0,99.0,13.4,1505.2,322.3,-0.8,1.8,2471.385,13.28,0.039,331.5
2023-03-31T02:10:03,42.805,6.029,-0.008,0.036,-0.005,101.0,106.0,99.0,13.3,1505.2,321.8,-0.7,1.8,2471.431,13.28,0.036,347.5
2023-03-31T02:13:03,42.805,6.029,-0.023,0.062,0.028,100.0,107.0,99.0,13.4,1505.2,329.7,-0.8,1.8,2471.379,13.29,0.066,339.6
2023-03-31T02:16:03,42.805,6.029,-0.063,0.054,-0.015,102.0,107.0,100.0,13.4,1505.2,326.8,-0.8,1.8,2471.312,13.29,0.082,310.6
2023-03-31T02:19:03,42.805,6.029,-0.005,0.046,0.024,101.0,107.0,99.0,13.4,1505.2,331.0,-0.8,1.8,2471.379,13.29,0.046,353.8
2023-03-31T02:22:03,42.805,6.029,0.002,0.025,-0.031,100.0,104.0,100.0,13.4,1505.2,330.6,-0.8,1.8,2471.373,13.29,0.025,4.6
2023-03-31T02:25:03,42.805,6.029,0.007,0.031,-0.019,101.0,106.0,100.0,13.3,1505.2,327.8,-0.8,1.8,2471.382,13.29,0.031,12.7
2023-03-31T02:28:03,42.805,6.029,-0.002,0.042,0.008,100.0,106.0,99.0,13.4,1505.2,321.1,-0.8,1.8,2471.374,13.29,0.042,357.3
2023-03-31T02:31:03,42.805,6.029,-0.006,0.045,-0.013,100.0,106.0,100.0,13.4,1505.2,333.4,-0.8,1.8,2471.355,13.29,0.045,352.4
2023-03-31T02:34:03,42.805,6.029,-0.015,0.053,0.002,100.0,108.0,99.0,13.3,1505.2,333.4,-0.8,1.8,2471.384,13.29,0.055,344.2
2023-03-31T02:37:03,42.805,6.029,-0.033,0.063,0.008,101.0,108.0,99.0,13.4,1505.2,327.1,-0.8,1.8,2471.422,13.29,0.071,332.4
2023-03-31T02:40:03,42.805,6.029,0.004,0.065,0.05,101.0,107.0,100.0,13.4,1505.2,331.0,-0.8,1.9,2471.401,13.29,0.065,3.5
2023-03-31T02:43:03,42.805,6.029,0.002,0.049,0.022,100.0,109.0,99.0,13.4,1505.2,333.4,-0.8,1.8,2471.392,13.29,0.049,2.3
2023-03-31T02:46:03,42.805,6.029,-0.049,0.054,-0.022,100.0,105.0,101.0,13.3,1505.2,321.3,-0.8,1.8,2471.352,13.29,0.072,317.8
2023-03-31T02:49:03,42.805,6.029,-0.008,0.057,0.003,100.0,105.0,100.0,13.3,1505.2,335.6,-0.8,1.8,2471.379,13.29,0.057,352.0
2023-03-31T02:52:03,42.805,6.029,-0.015,0.021,-0.027,100.0,105.0,99.0,13.4,1505.2,341.2,-0.8,1.8,2471.369,13.29,0.025,324.5
2023-03-31T02:55:03,42.805,6.029,-0.042,0.023,-0.018,101.0,105.0,99.0,13.3,1505.2,320.0,-0.8,1.8,2471.376,13.29,0.047,298.7
2023-03-31T02:58:03,42.805,6.029,-0.013,0.035,-0.005,100.0,107.0,100.0,13.4,1505.2,322.4,-0.8,1.8,2471.378,13.29,0.037,339.6
2023-03-31T03:04:03,42.805,6.029,-0.006,0.04,-0.026,101.0,108.0,99.0,13.4,1505.2,316.2,-0.8,1.8,2471.435,13.28,0.04,351.5
2023-03-31T03:07:03,42.805,6.029,-0.008,0.07,0.02,102.0,105.0,99.0,13.4,1505.2,327.6,-0.8,1.8,2471.434,13.28,0.07,353.5
2023-03-31T03:10:03,42.805,6.029,-0.007,0.057,-0.003,101.0,105.0,99.0,13.3,1505.2,328.8,-0.8,1.8,2471.416,13.28,0.057,353.0
2023-03-31T03:13:03,42.805,6.029,-0.001,0.058,-0.008,101.0,109.0,99.0,13.4,1505.2,333.4,-0.8,1.8,2471.428,13.28,0.058,359.0
2023-03-31T03:16:03,42.805,6.029,-0.009,0.039,0.02,100.0,104.0,100.0,13.4,1505.2,336.0,-0.8,1.8,2471.387,13.29,0.04,347.0
2023-03-31T03:19:03,42.805,6.029,-0.022,0.053,0.028,100.0,107.0,99.0,13.4,1505.2,328.5,-0.7,1.8,2471.404,13.29,0.057,337.5
2023-03-31T03:22:03,42.805,6.029,-0.009,0.021,-0.06,102.0,107.0,99.0,13.4,1505.2,339.8,-0.7,1.8,2471.421,13.29,0.022,336.8
2023-03-31T03:25:03,42.805,6.029,-0.01,0.035,0.008,101.0,106.0,100.0,13.4,1505.2,321.2,-0.8,1.8,2471.425,13.29,0.036,344.1
2023-03-31T03:28:03,42.805,6.029,-0.001,0.037,0.02,100.0,108.0,99.0,13.4,1505.2,339.3,-0.8,1.8,2471.426,13.29,0.037,358.5
2023-03-31T03:31:03,42.805,6.029,0.003,0.046,0.032,100.0,108.0,100.0,13.3,1505.2,334.3,-0.8,1.8,2471.373,13.29,0.046,3.7
2023-03-31T03:34:03,42.805,6.029,-0.001,0.042,0.026,102.0,106.0,100.0,13.3,1505.2,339.4,-0.8,1.8,2471.408,13.29,0.042,358.6
2023-03-31T03:37:03,42.805,6.029,-0.015,0.049,0.011,100.0,105.0,100.0,13.4,1505.2,322.7,-0.8,1.8,2471.415,13.29,0.051,343.0
2023-03-31T03:40:03,42.805,6.029,-0.018,0.054,0.027,101.0,107.0,100.0,13.3,1505.2,327.9,-0.8,1.8,2471.38,13.29,0.056,341.6
2023-03-31T03:43:03,42.805,6.029,0.009,0.041,0.008,101.0,107.0,100.0,13.4,1505.2,327.5,-0.8,1.8,2471.404,13.29,0.041,12.4
2023-03-31T03:46:03,42.805,6.029,-0.016,0.044,0.017,102.0,105.0,99.0,13.4,1505.2,324.6,-0.8,1.8,2471.385,13.29,0.046,340.0
2023-03-31T03:49:03,42.805,6.029,-0.01,0.052,0.029,100.0,108.0,99.0,13.4,1505.2,330.4,-0.7,1.8,2471.437,13.29,0.052,349.1
2023-03-31T03:52:03,42.805,6.029,-0.006,0.075,0.048,100.0,104.0,100.0,13.4,1505.2,343.6,-0.8,1.8,2471.372,13.29,0.075,355.4
2023-03-31T03:55:03,42.805,6.029,-0.001,0.071,0.024,100.0,106.0,100.0,13.3,1505.2,335.2,-0.8,1.8,2471.405,13.29,0.071,359.2
2023-03-31T03:58:03,42.805,6.029,-0.009,0.073,0.031,101.0,105.0,99.0,13.4,1505.2,328.7,-0.7,1.9,2471.365,13.29,0.073,353.0
2023-03-31T04:04:03,42.805,6.029,-0.028,0.038,-0.014,101.0,104.0,100.0,13.3,1505.2,321.2,-0.8,1.8,2471.439,13.28,0.047,323.6
2023-03-31T04:07:03,42.805,6.029,-0.043,0.056,-0.026,101.0,106.0,99.0,13.4,1505.2,323.3,-0.8,1.8,2471.414,13.28,0.07,322.5
2023-03-31T04:10:03,42.805,6.029,-0.004,0.038,0.033,102.0,106.0,100.0,13.3,1505.2,319.8,-0.7,1.8,2471.443,13.28,0.038,354.0
2023-03-31T04:13:03,42.805,6.029,-0.038,0.073,0.028,100.0,111.0,100.0,13.4,1505.2,331.0,-0.8,1.8,2471.415,13.28,0.082,332.5
2023-03-31T04:16:03,42.805,6.029,0.01,0.054,0.023,100.0,103.0,100.0,13.4,1505.2,334.4,-0.8,1.8,2471.423,13.29,0.054,10.5
2023-03-31T04:19:03,42.805,6.029,-0.012,0.063,0.042,101.0,107.0,99.0,13.4,1505.2,327.7,-0.8,1.8,2471.409,13.29,0.064,349.2
2023-03-31T04:22:03,42.805,6.029,0.018,0.037,0.006,100.0,105.0,99.0,13.4,1505.2,342.1,-0.8,1.8,2471.384,13.29,0.041,25.9
2023-03-31T04:25:03,42.805,6.029,-0.005,0.025,-0.038,100.0,107.0,100.0,13.4,1505.2,334.8,-0.8,1.8,2471.399,13.29,0.025,348.7
2023-03-31T04:28:03,42.805,6.029,0.015,0.055,0.05,101.0,106.0,99.0,13.4,1505.2,323.2,-0.8,1.8,2471.391,13.29,0.057,15.3
2023-03-31T04:31:03,42.805,6.029,-0.011,0.064,0.032,101.0,109.0,99.0,13.4,1505.2,334.8,-0.8,1.8,2471.397,13.29,0.064,350.2
2023-03-31T04:34:03,42.805,6.029,-0.03,0.05,-0.021,101.0,109.0,99.0,13.4,1505.2,334.2,-0.8,1.8,2471.418,13.29,0.058,329.0
2023-03-31T04:37:03,42.805,6.029,0.003,0.015,0.004,102.0,105.0,100.0,13.4,1505.2,332.1,-0.8,1.8,2471.398,13.29,0.015,11.3
2023-03-31T04:40:03,42.805,6.029,-0.005,0.073,0.037,100.0,105.0,100.0,13.4,1505.2,335.4,-0.8,1.8,2471.401,13.29,0.073,356.1
2023-03-31T04:43:03,42.805,6.029,-0.001,0.079,0.056,100.0,109.0,100.0,13.3,1505.2,330.0,-0.7,1.8,2471.396,13.29,0.079,359.3
2023-03-31T04:46:03,42.805,6.029,-0.012,0.064,0.034,100.0,110.0,99.0,13.4,1505.2,325.5,-0.7,1.8,2471.387,13.29,0.065,349.4
2023-03-31T04:49:03,42.805,6.029,-0.023,0.031,-0.01,102.0,105.0,101.0,13.4,1505.2,320.3,-0.8,1.8,2471.377,13.29,0.038,323.4
2023-03-31T04:52:03,42.805,6.029,-0.015,0.062,-0.017,102.0,105.0,100.0,13.3,1505.2,337.1,-0.7,1.8,2471.382,13.29,0.063,346.4
2023-03-31T04:55:03,42.805,6.029,0.012,0.037,0.039,100.0,106.0,99.0,13.4,1505.2,328.5,-0.7,1.8,2471.364,13.29,0.038,18.0
2023-03-31T04:58:03,42.805,6.029,-0.037,0.047,0.017,102.0,105.0,99.0,13.4,1505.2,321.2,-0.8,1.8,2471.396,13.29,0.059,321.8
2023-03-31T05:04:03,42.805,6.029,-0.018,0.065,0.024,101.0,107.0,99.0,13.4,1505.2,331.5,-0.8,1.8,2471.453,13.28,0.067,344.5
2023-03-31T05:07:03,42.805,6.029,0.006,0.02,-0.015,101.0,102.0,100.0,13.3,1505.2,325.7,-0.8,1.8,2471.455,13.28,0.02,16.7
2023-03-31T05:10:03,42.805,6.029,-0.019,0.054,-0.008,102.0,103.0,100.0,13.3,1505.2,331.5,-0.8,1.8,2471.413,13.28,0.057,340.6
2023-03-31T05:13:03,42.805,6.029,0.0,0.051,0.019,99.0,107.0,101.0,13.4,1505.2,335.8,-0.7,1.8,2471.442,13.28,0.051,0.0
2023-03-31T05:16:03,42.805,6.029,-0.008,0.029,-0.022,101.0,103.0,100.0,13.3,1505.2,325.1,-0.8,1.8,2471.423,13.29,0.03,344.6
2023-03-31T05:19:03,42.805,6.029,-0.021,0.038,0.02,101.0,102.0,100.0,13.4,1505.2,329.7,-0.8,1.8,2471.406,13.29,0.043,331.1
2023-03-31T05:22:03,42.805,6.029,-0.017,0.045,0.009,102.0,104.0,100.0,13.4,1505.2,331.0,-0.8,1.8,2471.386,13.29,0.048,339.3
2023-03-31T05:25:03,42.805,6.029,-0.01,0.028,-0.016,101.0,104.0,100.0,13.4,1505.2,329.5,-0.8,1.8,2471.38,13.29,0.029,340.4
2023-03-31T05:28:03,42.805,6.029,0.008,0.033,0.002,102.0,104.0,100.0,13.3,1505.2,340.2,-0.7,1.8,2471.41,13.29,0.033,13.6
2023-03-31T05:31:03,42.805,6.029,-0.003,0.05,0.052,101.0,106.0,99.0,13.4,1505.2,325.3,-0.8,1.8,2471.356,13.29,0.05,356.6
2023-03-31T05:34:03,42.805,6.029,0.018,0.011,0.015,101.0,104.0,99.0,13.3,1505.2,332.9,-0.8,1.8,2471.4,13.29,0.021,58.6
2023-03-31T05:37:03,42.805,6.029,-0.005,0.033,0.019,101.0,104.0,100.0,13.3,1505.2,321.7,-0.7,1.8,2471.396,13.29,0.033,351.4
2023-03-31T05:40:03,42.805,6.029,-0.01,0.051,0.036,102.0,104.0,99.0,13.4,1505.2,334.9,-0.8,1.8,2471.404,13.29,0.051,348.9
2023-03-31T05:43:03,42.805,6.029,-0.013,0.048,0.018,101.0,103.0,99.0,13.3,1505.2,326.8,-0.7,1.8,2471.361,13.29,0.049,344.8
2023-03-31T05:46:03,42.805,6.029,-0.031,0.043,-0.011,102.0,103.0,100.0,13.4,1505.2,325.3,-0.8,1.8,2471.374,13.29,0.053,324.2
2023-03-31T05:49:03,42.805,6.029,0.001,0.045,0.016,101.0,102.0,99.0,13.4,1505.2,326.3,-0.7,1.8,2471.365,13.29,0.045,1.3
2023-03-31T05:52:03,42.805,6.029,-0.015,0.052,0.002,102.0,102.0,100.0,13.4,1505.2,323.3,-0.8,1.8,2471.354,13.29,0.054,343.9
2023-03-31T05:55:03,42.805,6.029,-0.018,0.04,-0.036,100.0,103.0,100.0,13.3,1505.2,333.9,-0.8,1.8,2471.345,13.29,0.043,335.8
2023-03-31T05:58:03,42.805,6.029,-0.001,0.066,0.007,101.0,103.0,100.0,13.4,1505.2,330.9,-0.7,1.8,2471.347,13.29,0.066,359.1
2023-03-31T06:04:03,42.805,6.029,-0.013,0.053,0.015,102.0,104.0,99.0,13.4,1505.2,325.3,-0.8,1.8,2471.412,13.28,0.054,346.2
2023-03-31T06:07:03,42.805,6.029,-0.023,0.06,0.024,101.0,103.0,100.0,13.4,1505.2,323.3,-0.7,1.8,2471.408,13.28,0.064,339.0
2023-03-31T06:10:03,42.805,6.029,0.009,0.064,0.021,101.0,103.0,100.0,13.4,1505.2,330.7,-0.8,1.8,2471.381,13.28,0.064,8.0
2023-03-31T06:13:03,42.805,6.029,-0.041,0.089,0.042,103.0,102.0,101.0,13.4,1505.2,332.4,-0.8,1.8,2471.408,13.28,0.097,335.3
2023-03-31T06:16:03,42.805,6.029,-0.019,0.061,0.003,101.0,103.0,100.0,13.3,1505.2,328.5,-0.8,1.8,2471.384,13.29,0.063,342.7
2023-03-31T06:19:03,42.805,6.029,-0.01,0.034,-0.004,101.0,101.0,100.0,13.4,1505.2,333.4,-0.8,1.8,2471.352,13.29,0.035,343.6
2023-03-31T06:22:03,42.805,6.029,-0.064,0.043,0.029,100.0,103.0,101.0,13.4,1505.2,320.1,-0.8,1.8,2471.377,13.29,0.077,303.9
2023-03-31T06:25:03,42.805,6.029,0.002,0.029,-0.017,101.0,102.0,100.0,13.4,1505.2,342.5,-0.8,1.8,2471.361,13.29,0.029,3.9
2023-03-31T06:28:03,42.805,6.029,-0.002,0.064,0.031,101.0,105.0,100.0,13.4,1505.2,324.4,-0.7,1.8,2471.356,13.29,0.064,358.2
2023-03-31T06:31:03,42.805,6.029,-0.038,0.063,0.01,100.0,105.0,100.0,13.4,1505.2,334.8,-0.8,1.8,2471.375,13.29,0.073,328.9
2023-03-31T06:34:03,42.805,6.029,0.012,0.057,0.041,101.0,103.0,99.0,13.3,1505.2,335.4,-0.8,1.8,2471.392,13.29,0.058,11.9
2023-03-31T06:37:03,42.805,6.029,-0.015,0.034,-0.017,102.0,103.0,101.0,13.4,1505.2,330.1,-0.8,1.8,2471.383,13.29,0.037,336.2
2023-03-31T06:40:03,42.805,6.029,-0.018,0.051,0.014,100.0,103.0,100.0,13.3,1505.2,331.7,-0.8,1.8,2471.357,13.29,0.054,340.6
2023-03-31T06:43:03,42.805,6.029,-0.011,0.05,-0.012,101.0,105.0,100.0,13.4,1505.2,339.8,-0.8,1.8,2471.375,13.29,0.051,347.6
2023-03-31T06:46:03,42.805,6.029,0.008,0.033,-0.009,102.0,104.0,99.0,13.4,1505.2,335.2,-0.7,1.8,2471.338,13.29,0.033,13.6
2023-03-31T06:49:03,42.805,6.029,-0.009,0.035,-0.002,101.0,103.0,101.0,13.4,1505.2,332.4,-0.8,1.8,2471.361,13.29,0.036,345.6
2023-03-31T06:52:03,42.805,6.029,-0.01,0.032,-0.023,101.0,103.0,101.0,13.4,1505.2,333.9,-0.8,1.8,2471.358,13.29,0.033,342.6
2023-03-31T06:55:03,42.805,6.029,-0.016,0.044,-0.009,101.0,104.0,100.0,13.3,1505.2,322.7,-0.7,1.8,2471.356,13.29,0.046,340.0
2023-03-31T06:58:03,42.805,6.029,-0.026,0.049,0.004,101.0,105.0,100.0,13.4,1505.2,340.8,-0.8,1.8,2471.339,13.29,0.055,332.1
2023-03-31T07:04:03,42.805,6.029,-0.013,0.051,0.014,101.0,104.0,99.0,13.4,1505.2,326.8,-0.8,1.8,2471.39,13.28,0.052,345.7
2023-03-31T07:07:03,42.805,6.029,-0.054,0.069,0.015,101.0,104.0,99.0,13.4,1505.2,322.9,-0.8,1.8,2471.36,13.28,0.087,322.0
2023-03-31T07:10:03,42.805,6.029,-0.015,0.029,0.002,103.0,102.0,101.0,13.4,1505.2,323.9,-0.8,1.8,2471.394,13.28,0.032,332.6
2023-03-31T07:13:03,42.805,6.029,-0.032,0.071,0.031,103.0,104.0,101.0,13.4,1505.2,323.1,-0.8,1.8,2471.358,13.29,0.077,335.7
2023-03-31T07:16:03,42.805,6.029,-0.024,0.065,0.026,103.0,104.0,99.0,13.3,1505.2,317.2,-0.7,1.8,2471.401,13.28,0.069,339.7
2023-03-31T07:19:03,42.805,6.029,-0.048,0.046,-0.021,101.0,102.0,101.0,13.3,1505.2,328.5,-0.8,1.8,2471.375,13.29,0.066,313.8
2023-03-31T07:22:03,42.805,6.029,-0.004,0.037,-0.014,103.0,104.0,100.0,13.4,1505.2,337.8,-0.8,1.8,2471.335,13.29,0.037,353.8
2023-03-31T07:25:03,42.805,6.029,0.0,0.044,-0.009,102.0,104.0,100.0,13.4,1505.2,330.6,-0.8,1.8,2471.388,13.29,0.044,0.0
2023-03-31T07:28:03,42.805,6.029,-0.001,0.053,0.007,102.0,103.0,100.0,13.4,1505.2,336.1,-0.8,1.8,2471.347,13.29,0.053,358.9
2023-03-31T07:31:03,42.805,6.029,0.003,0.055,0.009,103.0,103.0,100.0,13.4,1505.2,342.1,-0.7,1.8,2471.354,13.29,0.055,3.1
2023-03-31T07:34:03,42.805,6.029,0.0,0.039,0.013,104.0,104.0,99.0,13.4,1505.2,326.3,-0.8,1.8,2471.367,13.29,0.039,0.0
2023-03-31T07:37:03,42.805,6.029,-0.035,0.036,0.002,101.0,104.0,100.0,13.4,1505.2,317.6,-0.7,1.8,2471.331,13.29,0.05,315.8
2023-03-31T07:40:03,42.805,6.029,-0.015,0.062,0.027,102.0,106.0,100.0,13.3,1505.2,338.8,-0.7,1.8,2471.334,13.29,0.063,346.4
2023-03-31T07:43:03,42.805,6.029,-0.019,0.05,0.01,103.0,103.0,101.0,13.4,1505.2,323.3,-0.8,1.8,2471.359,13.29,0.053,339.2
2023-03-31T07:46:03,42.805,6.029,-0.019,0.041,-0.008,102.0,102.0,101.0,13.3,1505.2,329.5,-0.8,1.8,2471.368,13.29,0.045,335.1
2023-03-31T07:49:03,42.805,6.029,-0.016,0.072,0.02,103.0,104.0,101.0,13.4,1505.2,338.5,-0.8,1.8,2471.363,13.29,0.073,347.5
2023-03-31T07:52:03,42.805,6.029,-0.005,0.04,-0.017,103.0,103.0,102.0,13.4,1505.2,318.4,-0.7,1.8,2471.303,13.29,0.04,352.9
2023-03-31T07:55:03,42.805,6.029,-0.001,0.058,0.031,103.0,104.0,101.0,13.4,1505.2,338.7,-0.8,1.8,2471.382,13.29,0.058,359.0
2023-03-31T07:58:03,42.805,6.029,-0.025,0.061,-0.002,102.0,106.0,100.0,13.4,1505.2,323.9,-0.7,1.8,2471.361,13.29,0.065,337.7
2023-03-31T08:04:03,42.805,6.029,-0.026,0.06,-0.015,102.0,103.0,100.0,13.4,1505.2,338.7,-0.8,1.8,2471.377,13.28,0.065,336.6
2023-03-31T08:07:03,42.805,6.029,-0.01,0.036,0.0,103.0,105.0,101.0,13.3,1505.2,329.3,-0.8,1.8,2471.39,13.28,0.037,344.5
2023-03-31T08:10:03,42.805,6.029,-0.038,0.04,-0.022,102.0,103.0,100.0,13.4,1505.2,318.9,-0.8,1.8,2471.352,13.28,0.055,316.5
2023-03-31T08:13:03,42.805,6.029,-0.022,0.06,-0.009,101.0,105.0,101.0,13.4,1505.2,324.9,-0.8,1.8,2471.366,13.29,0.063,339.9
2023-03-31T08:16:03,42.805,6.029,-0.04,0.054,-0.017,103.0,105.0,100.0,13.3,1505.2,327.1,-0.7,1.8,2471.359,13.29,0.067,323.5
2023-03-31T08:19:03,42.805,6.029,-0.043,0.054,0.007,103.0,104.0,100.0,13.3,1505.2,317.4,-0.8,1.8,2471.331,13.29,0.069,321.5
2023-03-31T08:22:03,42.805,6.029,-0.015,0.052,0.021,103.0,103.0,100.0,13.3,1505.2,326.8,-0.8,1.8,2471.324,13.29,0.054,343.9
2023-03-31T08:25:03,42.805,6.029,-0.005,0.064,0.037,103.0,104.0,100.0,13.4,1505.2,327.5,-0.8,1.8,2471.332,13.29,0.064,355.5
2023-03-31T08:28:03,42.805,6.029,-0.023,0.04,-0.029,103.0,108.0,100.0,13.4,1505.2,341.5,-0.8,1.8,2471.36,13.29,0.046,330.1
2023-03-31T08:31:03,42.805,6.029,-0.001,0.051,-0.009,101.0,104.0,101.0,13.3,1505.2,334.8,-0.7,1.8,2471.318,13.29,0.051,358.9
2023-03-31T08:34:03,42.805,6.029,-0.013,0.053,0.033,103.0,103.0,101.0,13.4,1505.2,326.0,-0.8,1.8,2471.299,13.29,0.054,346.2
2023-03-31T08:37:03,42.805,6.029,-0.023,0.045,0.015,103.0,104.0,101.0,13.4,1505.2,317.3,-0.8,1.8,2471.286,13.29,0.05,332.9
2023-03-31T08:40:03,42.805,6.029,-0.023,0.085,0.049,102.0,104.0,100.0,13.4,1505.2,332.4,-0.8,1.8,2471.302,13.29,0.088,344.9
2023-03-31T08:43:03,42.805,6.029,-0.017,0.067,0.004,101.0,105.0,101.0,13.3,1505.2,342.5,-0.8,1.8,2471.319,13.29,0.069,345.8
2023-03-31T08:46:03,42.805,6.029,-0.007,0.063,0.035,102.0,104.0,100.0,13.4,1505.2,319.1,-0.7,1.8,2471.312,13.29,0.063,353.7
2023-03-31T08:49:03,42.805,6.029,-0.017,0.061,0.0,101.0,107.0,101.0,13.4,1505.2,336.3,-0.8,1.8,2471.356,13.29,0.063,344.4
2023-03-31T08:52:03,42.805,6.029,-0.023,0.046,0.027,102.0,105.0,100.0,13.4,1505.2,323.7,-0.7,1.8,2471.305,13.29,0.051,333.4
2023-03-31T08:55:03,42.805,6.029,-0.007,0.041,0.007,103.0,104.0,100.0,13.4,1505.2,337.8,-0.8,1.8,2471.306,13.29,0.041,350.3
2023-03-31T08:58:03,42.805,6.029,-0.021,0.035,-0.036,102.0,104.0,100.0,13.3,1505.2,321.9,-0.7,1.8,2471.301,13.29,0.04,329.0
2023-03-31T09:04:03,42.805,6.029,-0.05,0.044,0.007,102.0,104.0,100.0,13.4,1505.2,319.8,-0.7,1.8,2471.357,13.28,0.066,311.3
2023-03-31T09:07:03,42.805,6.029,-0.037,0.056,-0.009,101.0,103.0,101.0,13.3,1505.2,321.2,-0.7,1.8,2471.352,13.28,0.067,326.5
2023-03-31T09:10:03,42.805,6.029,-0.002,0.054,0.004,103.0,106.0,100.0,13.4,1505.2,331.0,-0.8,1.8,2471.341,13.28,0.054,357.9
2023-03-31T09:13:03,42.805,6.029,-0.019,0.04,-0.003,101.0,105.0,101.0,13.4,1505.2,315.0,-0.8,1.8,2471.314,13.29,0.044,334.6
2023-03-31T09:16:03,42.805,6.029,-0.009,0.052,0.04,103.0,106.0,99.0,13.3,1505.2,333.9,-0.8,1.8,2471.281,13.29,0.052,350.2
2023-03-31T09:19:03,42.805,6.029,-0.012,0.073,0.005,102.0,107.0,100.0,13.4,1505.2,326.3,-0.8,1.8,2471.282,13.29,0.073,350.7
2023-03-31T09:22:03,42.805,6.029,-0.017,0.031,0.002,103.0,104.0,101.0,13.3,1505.2,327.4,-0.8,1.8,2471.331,13.29,0.035,331.3
2023-03-31T09:25:03,42.805,6.029,-0.016,0.046,-0.027,102.0,104.0,101.0,13.3,1505.2,339.3,-0.8,1.8,2471.302,13.29,0.048,340.8
2023-03-31T09:28:03,42.805,6.029,-0.034,0.055,-0.038,102.0,108.0,101.0,13.3,1505.2,326.3,-0.8,1.8,2471.299,13.29,0.064,328.3
2023-03-31T09:31:03,42.805,6.029,-0.014,0.038,-0.016,103.0,103.0,101.0,13.4,1505.2,330.5,-0.8,1.8,2471.307,13.29,0.04,339.8
2023-03-31T09:34:03,42.805,6.029,-0.014,0.046,-0.003,102.0,104.0,101.0,13.4,1505.2,325.7,-0.8,1.8,2471.289,13.29,0.048,343.1
2023-03-31T09:37:03,42.805,6.029,-0.008,0.061,0.01,102.0,108.0,101.0,13.3,1505.2,330.7,-0.8,1.8,2471.284,13.29,0.061,352.5
2023-03-31T09:40:03,42.805,6.029,-0.028,0.054,0.013,102.0,107.0,101.0,13.4,1505.2,323.3,-0.8,1.9,2471.301,13.29,0.06,332.6
2023-03-31T09:43:03,42.805,6.029,-0.006,0.058,0.008,102.0,105.0,101.0,13.4,1505.2,333.4,-0.8,1.8,2471.255,13.29,0.058,354.1
2023-03-31T09:46:03,42.805,6.029,0.023,0.034,0.021,102.0,108.0,101.0,13.3,1505.2,328.2,-0.7,1.8,2471.273,13.29,0.041,34.1
2023-03-31T09:49:03,42.805,6.029,-0.029,0.057,0.022,102.0,104.0,100.0,13.4,1505.2,327.9,-0.7,1.8,2471.285,13.29,0.063,333.0
2023-03-31T09:52:03,42.805,6.029,-0.011,0.032,0.019,102.0,105.0,100.0,13.4,1505.2,335.6,-0.8,1.8,2471.314,13.29,0.033,341.0
2023-03-31T09:55:03,42.805,6.029,0.001,0.039,-0.006,103.0,104.0,100.0,13.4,1505.2,318.5,-0.8,1.8,2471.287,13.29,0.039,1.5
2023-03-31T09:58:03,42.805,6.029,-0.021,0.057,0.008,102.0,104.0,101.0,13.4,1505.2,335.1,-0.7,1.8,2471.313,13.29,0.06,339.8
2023-03-31T10:04:03,42.805,6.029,0.003,0.037,-0.001,104.0,104.0,101.0,13.3,1505.2,338.4,-0.8,1.8,2471.357,13.28,0.037,4.6